Location: Владивосток
(43.1151°N, 131.8856°E)
Time: 14:23:28
(UTC+10:00)

NOAA 19 - Pass Details

Date: 04 July 2022
Orbit: 840 x 861 km, 99.1° (Epoch: 09 August)

Event Time Altitude Azimuth Distance (km) Brightness Sun altitude
Rises 21:51:13 0° 212° (SSW) 3,416 8.2 -8.9°
Reaches altitude 10° 21:54:38 10° 234° (SW) 2,482 7.8 -9.3°
Maximum altitude 21:57:49 16° 270° (W) 2,111 7.9 -9.7°
Drops below altitude 10° 22:01:02 10° 306° (NW) 2,484 9.2 -10.1°
Sets 22:04:27 0° 328° (NNW) 3,421 10.2 -10.6°
